Showing default

UND ROADS 1, 64535

Orbit data source: Space-Track

UND ROADS 1, 64535 is an American payload satellite in SSO that was launched on Mon, 23 Jun 2025 UTC via an FALCON 9 launch vehicle from the Air Force Western Test Range (AFWTR). Payload-class satellites include a variety of spacecraft equipped with specific instruments for various scientific and technological missions. These include communications satellites like Starlink; space stations such as the ISS; scientific satellites like the Hubble; Earth observation satellites from companies like Planet Labs, Umbra, and HawkEye 360; GPS; miniature CubeSats for education and research; and military/defense satellites.

Loading next visibility...
Identifier
64535, 2025-135H
Orbit
SSO
Country
Flag of USUS
Related business
Manufacturer
UND
Mission
Operational Amateur Technology
Bus & Motor
CUBESAT 3U, Unknown motor
Mass
5.4 kg wet, 5.4 kg dry
Launch date (UTC)
2025-06-23 (1 year ago)
Launch vehicle
FALCON 9
Launch site
Air Force Western Test Range (AFWTR)
Object type
Payload
Rocket body
Debris
Shape & HBR
Box, 0.2 m
Radar Cross Section
0.035 m², Medium (>0.1 m² and < 1m²)

Expand to show TLE details & history
Last TLE update: 13 hours ago

TLE from 13 hours ago
0 UND ROADS 1
1 64535U 25135H   26178.32447067  .00006765  00000-0  29409-3 0  9997
2 64535  97.4686 293.3031 0005620 133.5318 226.6386 15.22587851 56405
Epoch: 2026-06-27T07:47Z
TLE epoch observation values (Epoch: 2026-06-27T07:47:14.265Z)
Latitude
-0.00006°
Longitude
-98.94659°
Altitude
503.785 km
Speed
7.611 km/s
True Right ascension
19h 33m 12s
True Declination
0° 00' 00"
Sunlit
Object was in full shadow at epoch
Visualization orbit readout
Latitude
Unknown
Longitude
Unknown
Altitude
Unknown
Speed
Unknown
Apparent Right ascension
Unknown
Apparent Declination
Unknown
Sunlit
N/A
Visualization observer readout
Local Sidereal Time
08:02:45
Azimuth
Unknown
Elevation
Unknown
Doppler factor
Unknown
Orbital elements
Apogee altitude
498.866 km
Perigee altitude
491.141 km
Semi-major axis
6,873.14 km
Eccentricity
0.00056
Inclination
97.4686°
RAAN
293.3031°
Arg. of periapsis
133.5318°
True anomaly
226.5918°
Mean anomaly
226.6386°
Eccentric anomaly
226.6152°
Mean motion
3.80899 °/min
Orbital period
94.51 mins
BSTAR
0.00029409
Loading maneuver chart data...
Computing Atmospheric mass density...
Loading historical data...
Loading historical data...
Loading historical data...
Loading historical data...
Loading historical data...
Loading historical data...
Loading historical data...

Documentation

Showing up to 5 results
|